Hourly Data Report for August 07, 2020

LYTTON RCS
BRITISH COLUMBIA
Current Station Operator: ECCC - MSC

50°13'28.000" N
121°34'55.000" W
225.00 m
1114746
71765
VLY

Download Data

Hourly Data (August 2020)
Hourly Data Report for August 7, 2020
TIME Temp Definition
°C
Dew Point Definition
°C
Rel Hum Definition
%
Wind Dir Definition
10's deg

Wind Spd Definition
km/h
Visibility Definition
km
Stn Press Definition
kPa
Hmdx Definition


Wind Chill Definition


Weather Definition


00:00 15.8 8.8 63 18 28   98.76     LegendNANA
01:00 15.7 8.6 63 19 23   98.81     LegendNANA
02:00 15.4 8.6 64 19 24   98.84     LegendNANA
03:00 15.4 8.7 65 19 25   98.88     LegendNANA
04:00 15.4 8.8 65 19 24   98.92     LegendNANA
05:00 15.1 9.0 67 19 23   98.96     LegendNANA
06:00 15.1 9.0 67 20 24   99.00     LegendNANA
07:00 16.1 9.1 63 19 25   99.02     LegendNANA
08:00 17.4 9.0 58 19 28   98.99     LegendNANA
09:00 17.3 9.6 60 19 29   99.06     LegendNANA
10:00 18.3 9.3 56 19 29   99.05     LegendNANA
11:00 18.6 9.0 54 20 29   99.02     LegendNANA
12:00 19.3 8.4 49 19 29   99.01     LegendNANA
13:00 18.5 8.2 51 18 32   99.06     LegendNANA
14:00 19.2 7.8 47 19 27   99.07     LegendNANA
15:00 19.3 7.4 46 18 30   99.07     LegendNANA
16:00 19.7 7.1 44 18 28   99.06     LegendNANA
17:00 19.9 7.0 43 18 22   99.06     LegendNANA
18:00 19.5 7.2 45 18 25   99.06     LegendNANA
19:00 18.8 7.2 47 19 24   99.07     LegendNANA
20:00 18.4 7.4 49 19 21   99.08     LegendNANA
21:00 17.6 8.3 54 21 19   99.06     LegendNANA
22:00 17.4 8.4 56 20 22   99.04     LegendNANA
23:00 16.9 8.3 57 19 26   99.02     LegendNANA

Notes on Data Quality.

Legend

  • E = Estimated
  • M = Missing
  • NA = Not Available*
  • [empty] = Indicates an unobserved value
Date modified: